Temperature
30 31 32 31 31 31 31 31 30 30 30 29 29 28 27 27 27 26 25 25 24 23 22 21 21 20 20 20 19 19 19 18 18 18 18 18 18 18 18 18 18 18 18 18
29 31 31 31 31 31 31 31 30 30 29 29 28 27 27 26 26 25 25 24 23 23 22 21 20 20 19 19 19 19 19 18 18 18 18 18 17 17 17 17 17 17 17 17
28 30 30 29 30 30 30 30 30 29 29 28 27 27 26 25 25 25 24 23 23 22 21 20 20 20 19 19 19 18 18 18 18 18 17 17 17 17 17 17 17 17 17 17
27 28 27 29 31 30 30 30 30 29 28 28 27 26 25 25 24 24 23 23 22 22 21 20 20 19 19 18 18 18 18 18 18 18 17 17 17 17 17 17 17 17 17 17
27 27 27 28 29 29 28 28 28 27 27 26 25 25 24 23 23 23 22 22 22 21 21 20 19 19 18 18 18 17 17 17 17 17 17 17 17 17 17 17 17 17 16 16
26 25 25 27 29 29 28 27 27 26 25 25 25 24 23 22 22 21 21 21 21 20 20 19 19 18 18 17 17 17 17 17 17 17 17 17 17 17 16 16 16 16 16 16
25 25 26 27 28 28 26 24 25 25 24 24 23 23 21 21 21 20 20 20 20 20 19 18 18 18 17 17 17 17 16 16 16 16 16 16 16 16 16 16 16 16 16 16
25 24 24 26 26 25 23 23 23 23 22 22 21 21 20 20 20 20 19 19 19 19 18 18 17 17 17 16 16 16 16 16 16 16 16 16 16 16 16 16 15 15 15 15
24 24 24 24 24 23 23 22 22 21 21 21 20 20 20 19 19 19 18 18 18 18 17 17 17 16 16 16 16 16 16 15 15 15 16 16 16 15 15 15 15 15 15 15
23 24 24 23 23 22 22 21 21 20 20 19 19 19 18 18 18 18 17 17 17 17 16 16 16 16 16 16 15 15 15 15 15 15 15 15 15 15 15 15 15 15 15 15
23 23 23 22 22 21 21 20 20 20 19 19 18 18 18 18 17 17 17 16 16 16 16 15 15 15 15 15 15 15 15 15 15 15 15 15 15 15 15 15 14 15 15 15
22 22 21 21 20 20 20 20 20 19 18 18 18 17 17 17 17 16 16 16 16 15 15 15 15 15 15 15 15 15 14 14 14 14 14 14 14 14 14 14 14 14 14 14
21 20 20 20 20 20 20 19 19 18 18 17 17 17 17 16 16 16 16 16 15 15 15 15 14 14 14 14 14 14 14 14 14 14 14 14 14 14 14 14 14 14 14 14
19 19 20 19 19 19 19 19 18 18 17 17 17 16 16 16 16 15 15 15 15 15 15 14 14 14 14 14 14 14 14 14 14 14 14 14 14 14 14 14 14 13 13 13
19 19 19 19 19 18 18 18 18 17 17 16 16 16 16 15 15 15 14 14 14 14 14 14 14 14 14 14 14 14 14 14 14 13 13 13 13 13 13 13 13 13 13 13
18 18 18 18 18 18 17 17 17 17 16 16 16 15 15 15 14 14 14 14 14 13 13 13 13 13 13 13 13 13 13 13 13 13 13 13 13 13 13 13 13 13 13 13
18 18 18 17 17 17 17 17 16 16 16 16 15 15 15 14 14 14 14 14 13 13 13 13 13 13 13 13 13 13 13 13 13 13 13 13 13 13 13 13 13 12 12 12
17 17 17 17 17 16 16 16 16 16 15 15 15 14 14 14 14 13 13 13 13 13 12 12 13 13 13 13 13 13 13 13 13 13 13 13 12 12 12 12 12 12 12 12
17 16 16 16 16 16 16 15 15 15 15 14 14 14 13 13 13 13 13 13 12 12 12 12 12 12 12 12 12 13 13 13 13 13 13 12 12 12 12 12 12 12 12 12
16 16 16 15 15 15 15 15 14 14 14 14 14 13 13 13 13 13 12 12 12 12 12 12 12 12 12 12 12 12 13 13 13 12 12 12 12 12 12 12 12 11 11 11
15 15 15 15 15 15 14 14 14 14 14 13 13 13 13 13 12 12 12 12 12 12 12 12 12 12 12 12 12 12 12 12 12 12 12 12 12 12 12 12 11 11 11 11
14 14 14 14 14 14 14 14 14 13 13 13 13 13 13 12 12 12 12 12 12 12 11 11 11 11 11 12 12 12 12 12 12 12 12 12 11 11 11 11 11 11 11 11
14 13 14 14 14 14 13 13 13 13 13 13 13 13 12 12 12 12 12 12 11 11 11 11 11 11 11 11 11 11 11 11 11 11 11 11 11 11 11 11 11 11 11 10
13 13 13 13 13 13 13 13 13 13 13 13 13 12 12 12 12 12 12 12 11 11 11 11 11 11 11 11 11 11 11 11 11 11 11 11 11 11 11 10 10 10 10 10
13 13 13 13 13 13 13 13 13 13 13 13 13 13 12 12 12 12 12 11 11 11 11 11 11 11 10 10 10 11 11 11 11 11 10 10 10 10 10 10 10 10 10 9
13 13 13 13 13 13 13 13 13 13 13 13 13 13 12 12 12 12 12 11 11 11 11 10 10 10 10 10 10 10 10 10 10 10 10 10 10 10 10 10 9 9 9 9
13 13 13 13 13 13 13 13 13 13 13 13 13 12 12 12 12 12 11 11 11 11 11 10 10 10 10 10 10 10 10 10 10 10 10 10 10 10 10 9 9 9 9 9
Wind_Speed
16 15 14 14 14 13 13 12 12 11 7 4 0 2 2 3 2 3 4 3 3 4 3 2 2 2 1 1 2 2 3 3 3 3 2 3 4 4 5 5 7 5 5 5
16 17 16 15 14 13 12 10 11 11 6 4 2 1 2 2 2 3 3 2 2 3 3 2 2 1 1 0 0 1 2 2 2 3 3 3 3 3 4 4 4 4 5 5
14 14 15 15 11 9 8 8 9 10 6 3 3 3 2 2 2 2 2 3 2 2 3 2 2 2 2 1 1 1 1 2 2 3 3 3 4 3 3 4 4 4 4 4
12 13 15 9 5 7 9 8 7 6 4 4 3 3 2 2 2 1 0 1 1 2 2 3 3 2 1 1 1 1 1 2 2 2 3 3 3 3 3 3 3 4 4 4
10 14 13 8 6 7 8 7 4 4 5 4 4 3 2 4 5 3 2 2 1 1 1 2 2 2 1 1 1 1 2 2 2 2 2 2 2 3 3 3 3 3 3 3
11 12 12 6 4 5 7 6 3 5 4 4 5 4 3 6 6 4 3 2 2 1 1 2 2 1 0 1 1 1 2 2 2 2 2 3 3 3 3 3 3 3 3 2
14 13 8 5 7 6 7 4 7 6 5 5 5 5 4 5 5 4 4 3 2 2 1 2 1 1 0 1 2 2 2 2 2 2 3 3 2 2 2 2 3 3 2 2
11 12 7 5 4 3 3 5 7 7 7 6 5 5 5 5 4 5 4 3 2 2 2 2 2 1 1 1 2 2 2 2 2 2 2 2 1 2 2 3 3 3 2 2
5 4 4 6 5 5 5 5 6 6 6 6 6 6 5 5 4 4 4 4 3 2 2 3 3 1 0 1 1 1 1 2 1 1 1 1 1 1 1 2 2 2 2 2
4 2 2 3 5 6 6 5 5 5 5 5 4 4 5 5 4 5 4 2 3 3 3 3 3 2 1 1 1 1 2 1 1 1 0 1 1 1 1 1 2 2 1 1
7 3 2 3 4 5 4 4 4 5 5 5 5 5 5 4 4 4 4 3 3 2 2 2 2 2 2 1 1 2 2 2 2 2 1 1 0 1 1 0 1 1 1 1
4 4 4 4 5 5 4 4 4 4 4 4 3 4 4 3 3 3 3 2 2 2 2 2 2 2 2 2 1 2 2 2 2 1 1 1 2 1 4 3 3 3 3 1
4 6 5 4 5 5 4 3 3 3 3 3 4 4 3 3 3 3 4 4 3 2 2 2 2 2 1 1 1 1 1 1 1 1 1 1 1 1 1 1 3 3 2 3
4 5 5 5 5 4 4 3 3 3 2 2 2 2 2 3 4 4 4 4 3 2 2 2 2 2 2 1 1 1 1 1 1 1 1 1 1 1 1 1 1 1 1 2
5 6 6 5 4 4 3 3 2 2 2 2 2 2 1 2 3 3 4 4 3 2 2 2 2 3 3 2 2 2 2 1 1 1 1 1 1 1 1 0 0 1 2 2
6 6 5 5 5 4 4 3 3 3 2 2 2 2 1 1 1 2 2 2 2 2 2 3 3 3 3 3 2 1 1 1 1 1 2 1 1 1 1 0 0 1 1 1
6 6 6 5 6 5 4 4 4 3 3 2 1 1 1 1 1 1 1 2 2 2 2 2 3 3 3 3 3 3 2 1 2 2 2 1 0 0 1 1 1 0 1 2
6 6 5 5 5 4 4 4 4 3 3 2 1 1 1 1 1 1 1 2 2 2 2 2 2 3 3 3 3 3 2 1 1 1 1 1 1 1 1 1 1 1 1 2
4 4 4 5 4 3 3 2 2 2 2 1 1 1 1 1 1 0 1 1 1 2 2 2 2 3 3 2 3 3 3 3 1 1 0 0 2 2 1 1 1 1 0 1
2 1 1 3 3 2 1 2 1 1 1 1 1 1 1 1 1 1 1 2 1 2 2 2 3 3 3 2 3 3 3 3 2 1 0 1 1 1 1 1 1 1 1 1
0 0 1 2 1 0 0 0 1 1 1 1 1 1 1 1 1 1 2 2 1 1 2 2 3 3 3 3 4 3 3 2 2 1 1 1 2 2 2 1 1 1 1 1
2 2 1 2 1 1 1 1 1 1 0 0 1 1 1 2 2 1 1 1 1 1 2 2 2 3 4 5 4 4 2 2 2 2 1 2 2 2 1 1 1 2 2 1
2 3 2 2 1 1 1 1 1 1 1 1 1 2 2 2 1 2 2 1 1 1 2 2 2 3 4 4 4 4 2 2 2 2 2 2 2 1 1 1 1 2 2 2
2 3 3 3 3 2 2 2 2 2 2 2 2 2 2 2 2 2 1 1 1 0 1 2 2 1 3 3 3 3 2 2 1 1 2 1 2 1 1 2 2 2 2 3
3 4 4 4 4 3 3 3 4 3 4 3 2 2 2 1 1 1 1 2 3 1 0 1 2 2 3 3 2 2 2 2 2 2 2 1 2 2 1 1 2 2 2 2
4 5 4 4 3 3 3 3 3 3 3 2 1 1 1 0 0 0 1 1 1 1 0 0 1 1 1 2 2 2 1 1 1 1 1 1 1 1 2 2 2 2 2 2
5 4 4 4 4 3 3 3 2 2 2 2 2 1 0 0 1 0 0 0 0 1 0 0 0 1 1 1 2 2 1 1 1 1 1 1 2 2 2 2 2 2 2 2
Wind_Direction
273 274 272 269 265 266 266 270 274 281 277 276 309 102 118 134 154 138 128 123 110 115 120 116 116 125 127 156 159 178 189 207 218 226 237 245 244 242 241 240 242 238 244 246
272 272 269 267 265 263 264 272 279 287 289 319 354 51 98 131 171 148 137 140 144 129 136 141 142 141 141 152 131 166 196 214 213 222 228 241 246 245 246 246 249 243 242 244
269 273 274 262 262 265 269 277 279 281 293 316 345 8 4 345 252 163 173 178 190 157 145 161 178 178 176 175 223 231 221 224 217 220 226 234 246 244 249 251 245 243 246 244
267 270 263 266 277 277 277 284 304 317 337 341 343 352 348 322 326 84 287 138 152 173 167 175 183 189 183 190 207 238 256 263 246 241 243 240 237 238 243 253 253 243 246 246
263 262 256 258 283 287 284 282 331 347 344 352 349 338 346 16 2 1 34 44 20 227 195 159 161 161 183 206 204 245 266 284 282 268 262 252 246 249 243 242 246 245 242 243
256 265 263 265 298 303 285 263 4 351 347 348 330 311 338 355 6 354 1 60 36 354 70 94 81 97 188 257 240 272 289 297 299 289 275 267 260 254 244 234 234 243 240 230
252 258 259 308 320 303 275 316 353 351 351 345 343 348 343 0 14 354 355 28 48 19 56 75 56 87 48 333 300 300 306 305 304 291 273 262 259 249 234 232 231 229 237 222
247 253 255 349 341 330 347 5 357 2 360 358 3 5 353 4 11 359 359 8 20 36 50 61 56 59 33 328 309 336 322 304 300 297 282 281 264 242 230 228 224 215 209 225
268 269 27 30 34 35 32 24 10 2 2 7 6 2 0 6 4 8 25 15 15 36 56 63 56 59 198 289 335 329 296 289 292 303 326 332 263 242 236 229 232 235 221 222
274 236 30 20 19 30 29 22 11 360 2 12 11 358 4 12 9 15 24 23 24 28 46 56 47 31 7 359 345 300 286 275 268 259 247 20 2 314 282 286 269 262 250 238
278 304 346 9 10 10 22 25 11 8 9 12 13 7 9 15 23 14 4 13 21 36 36 29 33 22 360 342 301 278 274 260 244 235 218 151 117 358 330 22 214 209 289 268
298 342 328 329 346 344 357 6 3 9 11 6 2 359 6 7 22 13 348 352 13 38 44 29 21 17 6 344 317 284 273 281 268 242 213 184 160 95 41 54 77 89 97 118
311 318 316 315 317 317 323 332 350 2 11 7 7 1 2 5 14 9 358 4 3 7 27 32 18 9 3 345 335 302 292 291 276 277 270 231 195 205 178 84 75 69 88 124
294 298 293 297 299 303 311 329 341 344 350 8 3 349 348 356 353 354 354 346 334 0 24 32 18 2 345 338 327 307 280 277 265 252 256 252 235 255 252 194 133 95 87 137
282 282 278 282 289 295 299 305 312 314 335 348 328 325 334 356 352 349 351 340 344 12 20 12 8 357 343 336 328 310 299 281 277 271 265 263 260 261 282 358 94 102 91 95
278 279 273 266 269 272 277 276 281 286 295 301 309 321 336 352 358 359 359 348 353 6 2 0 360 348 336 335 332 306 290 295 256 255 246 245 238 265 305 313 197 136 129 115
266 271 269 260 257 254 262 270 274 282 289 287 298 315 354 18 22 3 330 330 17 8 10 360 353 347 328 317 309 299 283 234 203 224 233 258 288 332 313 292 268 192 142 128
263 265 271 266 258 248 257 265 269 275 283 291 293 302 302 279 281 308 335 1 14 359 356 351 348 331 313 314 308 297 292 273 241 261 259 235 240 268 268 268 296 304 152 148
253 258 268 257 241 232 249 267 280 291 295 291 285 274 255 247 256 300 342 326 307 301 316 340 318 289 286 295 304 283 274 276 270 249 254 203 249 248 228 226 244 280 264 167
259 251 271 270 245 222 231 241 260 286 298 289 272 257 257 236 217 219 232 268 298 330 338 344 312 299 299 316 308 292 289 278 272 271 300 289 284 286 275 275 298 304 299 269
7 297 265 270 289 328 313 294 302 274 268 274 265 250 231 210 229 234 246 265 354 350 324 311 292 305 325 336 305 300 309 316 314 295 287 297 290 283 283 288 290 290 292 295
7 344 296 284 304 327 322 292 274 271 256 249 259 234 202 212 222 224 245 282 295 342 292 296 340 13 355 326 306 302 300 301 302 294 289 290 286 290 292 302 299 295 295 300
341 325 305 280 280 279 283 274 244 262 250 236 261 285 282 286 260 253 263 279 272 306 301 351 46 37 337 309 305 305 314 308 303 309 312 299 288 293 317 329 324 323 332 338
293 298 295 289 277 255 242 238 233 237 247 232 220 239 259 271 273 257 237 143 124 130 333 73 109 12 309 305 307 316 328 326 313 319 319 320 325 330 343 343 340 348 354 351
268 269 264 268 270 254 227 225 223 227 243 239 232 216 231 259 298 333 77 105 122 143 9 138 175 259 289 300 301 311 325 338 346 351 350 351 343 342 347 329 320 315 312 304
255 259 258 258 269 274 252 238 244 246 242 243 244 273 294 42 18 178 144 166 181 183 176 334 198 225 278 299 305 309 311 312 313 321 329 313 305 302 301 311 316 305 305 309
254 251 243 250 251 250 251 245 243 247 252 265 281 274 323 67 82 67 77 117 355 335 358 316 292 276 287 298 299 297 299 315 313 295 295 305 315 318 315 314 308 309 319 340
Height
1469 1464 1462 1464 1464 1464 1468 1470 1476 1473 1472 1471 1470 1473 1477 1479 1482 1483 1486 1488 1490 1493 1494 1496 1497 1498 1499 1499 1501 1501 1502 1502 1502 1503 1504 1504 1505 1506 1506 1507 1508 1508 1509 1510
1474 1465 1462 1464 1461 1462 1464 1465 1467 1468 1471 1468 1471 1474 1477 1479 1480 1482 1485 1488 1490 1492 1493 1495 1496 1497 1497 1498 1499 1499 1499 1499 1499 1500 1500 1500 1501 1502 1502 1503 1503 1504 1505 1505
1480 1468 1466 1472 1463 1462 1464 1463 1466 1473 1472 1470 1473 1475 1477 1479 1481 1481 1483 1486 1489 1490 1491 1493 1494 1495 1495 1496 1496 1496 1496 1496 1496 1497 1497 1497 1497 1498 1498 1498 1499 1500 1501 1502
1480 1479 1491 1470 1458 1460 1463 1464 1464 1466 1470 1472 1475 1476 1478 1480 1481 1480 1483 1484 1487 1488 1490 1491 1492 1493 1493 1494 1494 1494 1494 1494 1494 1494 1493 1493 1493 1494 1494 1495 1495 1496 1497 1497
1482 1483 1478 1467 1462 1463 1467 1469 1468 1471 1473 1475 1475 1476 1479 1480 1481 1482 1483 1484 1486 1487 1488 1489 1490 1490 1491 1491 1491 1492 1491 1491 1491 1491 1491 1490 1490 1490 1491 1491 1492 1492 1493 1494
1481 1487 1488 1474 1464 1464 1468 1474 1472 1473 1475 1476 1476 1478 1482 1481 1481 1482 1484 1484 1486 1486 1487 1487 1488 1488 1489 1489 1489 1489 1489 1489 1488 1488 1488 1488 1487 1488 1488 1488 1488 1489 1489 1490
1481 1483 1476 1469 1466 1467 1479 1483 1476 1475 1476 1478 1479 1481 1483 1481 1481 1483 1484 1484 1484 1485 1486 1486 1486 1486 1486 1486 1486 1486 1487 1486 1486 1485 1485 1485 1485 1485 1485 1485 1485 1485 1486 1487
1479 1484 1484 1471 1470 1476 1480 1479 1478 1478 1479 1479 1480 1480 1481 1481 1482 1482 1483 1483 1483 1484 1484 1484 1484 1484 1484 1484 1484 1484 1485 1484 1484 1483 1483 1483 1483 1483 1483 1482 1482 1482 1483 1484
1477 1481 1477 1475 1476 1478 1479 1480 1481 1481 1481 1481 1480 1480 1481 1482 1482 1482 1481 1482 1482 1482 1482 1482 1482 1483 1483 1483 1483 1483 1482 1482 1481 1481 1480 1480 1480 1480 1481 1480 1480 1481 1481 1481
1475 1475 1476 1478 1479 1480 1481 1482 1482 1483 1482 1482 1481 1482 1482 1482 1482 1482 1482 1482 1482 1482 1481 1481 1481 1481 1482 1481 1481 1481 1481 1480 1479 1479 1478 1478 1479 1479 1479 1479 1479 1479 1479 1479
1476 1476 1477 1479 1481 1482 1482 1483 1483 1483 1483 1483 1482 1482 1482 1482 1482 1482 1482 1481 1481 1481 1481 1480 1480 1479 1479 1480 1479 1479 1478 1477 1477 1477 1477 1476 1477 1477 1477 1477 1477 1478 1477 1477
1478 1478 1480 1482 1482 1482 1483 1483 1483 1483 1483 1484 1483 1482 1482 1483 1483 1483 1482 1481 1481 1480 1480 1480 1479 1478 1478 1478 1477 1477 1476 1476 1476 1476 1476 1475 1475 1475 1476 1476 1476 1476 1476 1476
1480 1480 1481 1482 1482 1483 1483 1483 1483 1483 1483 1483 1483 1483 1483 1482 1482 1482 1482 1481 1481 1480 1480 1479 1478 1478 1477 1477 1476 1476 1475 1475 1475 1475 1475 1474 1474 1474 1474 1475 1474 1474 1474 1474
1480 1481 1481 1482 1482 1482 1482 1483 1483 1483 1483 1483 1483 1483 1483 1482 1482 1482 1481 1481 1481 1480 1479 1478 1477 1477 1476 1476 1475 1475 1474 1474 1474 1474 1474 1473 1473 1473 1473 1473 1473 1473 1473 1473
1479 1480 1480 1480 1481 1481 1482 1482 1482 1482 1483 1483 1483 1482 1482 1482 1482 1481 1481 1480 1479 1478 1478 1477 1476 1476 1475 1474 1474 1473 1473 1473 1473 1473 1473 1473 1472 1472 1472 1472 1472 1472 1472 1472
1478 1479 1479 1479 1480 1480 1480 1481 1481 1482 1482 1482 1482 1481 1481 1481 1481 1480 1480 1479 1478 1478 1477 1476 1475 1475 1474 1474 1473 1472 1472 1472 1471 1472 1472 1472 1471 1471 1471 1471 1471 1471 1471 1471
1477 1477 1477 1478 1478 1479 1479 1480 1480 1480 1480 1480 1480 1480 1480 1479 1479 1479 1479 1478 1478 1477 1476 1475 1474 1474 1473 1473 1472 1472 1472 1471 1471 1471 1471 1471 1471 1470 1470 1470 1470 1470 1470 1470
1475 1475 1476 1476 1476 1477 1478 1478 1479 1479 1478 1478 1478 1478 1478 1478 1478 1478 1477 1477 1477 1476 1475 1474 1474 1473 1472 1472 1471 1471 1470 1470 1470 1470 1470 1470 1470 1470 1470 1469 1469 1469 1469 1469
1472 1473 1473 1474 1475 1475 1476 1476 1477 1477 1476 1476 1476 1477 1477 1477 1477 1476 1476 1476 1475 1475 1474 1473 1472 1472 1471 1470 1469 1469 1469 1469 1469 1469 1469 1469 1469 1469 1468 1468 1468 1468 1468 1468
1471 1471 1471 1472 1472 1473 1474 1474 1475 1475 1475 1475 1475 1475 1475 1475 1475 1475 1475 1475 1474 1473 1473 1472 1471 1470 1470 1469 1468 1468 1468 1467 1467 1468 1467 1468 1468 1467 1467 1467 1467 1467 1467 1467
1470 1470 1470 1471 1471 1472 1472 1473 1473 1473 1473 1473 1473 1473 1473 1474 1474 1473 1473 1473 1472 1472 1471 1470 1470 1469 1468 1467 1466 1466 1466 1466 1466 1466 1466 1466 1466 1466 1466 1466 1466 1466 1466 1466
1470 1470 1470 1471 1471 1471 1471 1472 1472 1472 1472 1472 1472 1472 1472 1472 1472 1472 1471 1471 1470 1470 1469 1469 1467 1466 1466 1465 1464 1464 1464 1464 1464 1464 1464 1464 1464 1464 1464 1464 1464 1465 1465 1464
1470 1470 1470 1470 1470 1470 1471 1471 1471 1471 1470 1471 1471 1470 1470 1470 1470 1470 1470 1469 1468 1468 1467 1466 1465 1464 1463 1463 1462 1462 1462 1462 1462 1462 1462 1462 1462 1462 1463 1463 1463 1463 1463 1463
1470 1470 1470 1470 1469 1469 1469 1469 1469 1469 1469 1469 1469 1469 1469 1469 1468 1468 1467 1467 1466 1466 1465 1463 1463 1462 1461 1461 1461 1461 1461 1461 1461 1460 1460 1461 1461 1461 1461 1462 1462 1462 1461 1461
1468 1468 1468 1468 1468 1467 1467 1467 1467 1468 1468 1468 1468 1468 1467 1467 1467 1466 1465 1465 1464 1463 1462 1461 1461 1460 1460 1459 1459 1459 1459 1459 1459 1459 1459 1459 1459 1460 1460 1460 1460 1460 1459 1459
1467 1467 1466 1466 1466 1466 1466 1466 1466 1466 1466 1466 1466 1466 1466 1465 1465 1465 1464 1463 1463 1462 1461 1460 1459 1459 1458 1458 1458 1458 1458 1458 1458 1458 1458 1458 1458 1458 1458 1458 1458 1457 1457 1456
1465 1465 1465 1465 1464 1464 1464 1464 1464 1464 1464 1464 1464 1464 1464 1464 1464 1463 1463 1462 1462 1461 1460 1460 1459 1458 1458 1457 1457 1457 1457 1457 1457 1457 1457 1456 1456 1456 1456 1456 1456 1455 1454 1453